Location: Losili
(4.4086°N, 32.7049°E)
Time: 00:18:38
(UTC+00:00)

Cosmos 2360 Rocket - Pass Details

Date: 18 September 2019
Orbit: 833 x 846 km, 71.0° (Epoch: 20 October)

Event Time Altitude Azimuth Distance (km) Brightness Sun altitude
Rises 17:16:00 0° 341° (NNW) 3,386 5.6 -22.9°
Reaches altitude 10° 17:18:26 10° 340° (NNW) 2,454 4.9 -23.5°
Maximum altitude 17:24:03 75° 255° (WSW) 873 2.3 -24.9°
Enters shadow 17:28:06 20° 172° (S) 1,873 3.9 -25.9°
